Location: Biltmore Gardens
(41.6070°N, 83.4666°W)
Time: 14:18:26
(UTC+00:00)

Cosmos 2237 Rocket - Pass Details

Date: 14 July 2020
Orbit: 834 x 850 km, 71.0° (Epoch: 05 August)

Event Time Altitude Azimuth Distance (km) Brightness Sun altitude
Rises 02:58:32 0° 218° (SW) 3,399 5.2 -16.6°
Reaches altitude 10° 03:01:03 10° 223° (SW) 2,468 4.5 -16.9°
Maximum altitude 03:06:33 51° 299° (WNW) 1,068 3.1 -17.5°
Drops below altitude 10° 03:12:06 10° 14° (NNE) 2,485 5.2 -18.1°
Sets 03:14:39 0° 20° (NNE) 3,423 5.9 -18.4°
